SL-16 DEB, 22294

Orbit data source: Space-Track

SL-16 DEB, 22294 is space debris in LEO originally from a launch on Fri, 25 Dec 1992 UTC launched from the Tyuratam Missile And Space Complex (TTMTR). Debris objects in space refer to the collection of defunct objects orbiting the Earth. Examples of debris include non-operational satellites, rocket bodies, and fragments generated from explosions, collisions, or faulty payload assembly.

Loading next visibility...
Identifier
22294, 1992-093J
Orbit
LEO
Country
Flag of CISCIS
Related business
Manufacturer
Unknown
Mission
Spacecraft
Bus & Motor
Unknown
Mass
Unknown
Launch date (UTC)
1992-12-25 (33 years ago)
Launch vehicle
Unknown
Launch site
Tyuratam Missile And Space Complex (TTMTR)
Object type
Payload
Rocket body
Debris
Shape & HBR
Unknown shape, 0.6 m
Radar Cross Section
Medium (>0.1 m² and <1 m²)

Expand to show TLE details & history
Last TLE update: 3 days ago

TLE from 3 days ago
0 SL-16 DEB
1 22294U 92093J   26171.39716176  .00000121  00000-0  89767-4 0  9994
2 22294  71.0587  36.3489 0098220 154.7289  17.7101 14.10563184723461
Epoch: 2026-06-20T09:31Z
TLE epoch observation values (Epoch: 2026-06-20T09:31:54.776Z)
Latitude
6.75721°
Longitude
162.44031°
Altitude
791.577 km
Speed
7.493 km/s
True Right ascension
14h 16m 07s
True Declination
6° 43' 02"
Sunlit
Object was in full shadow at epoch
Visualization orbit readout
Latitude
Unknown
Longitude
Unknown
Altitude
Unknown
Speed
Unknown
Apparent Right ascension
Unknown
Apparent Declination
Unknown
Sunlit
N/A
Visualization observer readout
Local Sidereal Time
15:40:14
Azimuth
Unknown
Elevation
Unknown
Doppler factor
Unknown
Orbital elements
Apogee altitude
926.416 km
Perigee altitude
784.321 km
Semi-major axis
7,233.505 km
Eccentricity
0.00982
Inclination
71.0587°
RAAN
36.3489°
Arg. of periapsis
154.7289°
True anomaly
18.05653°
Mean anomaly
17.7101°
Eccentric anomaly
17.88291°
Mean motion
3.52793 °/min
Orbital period
102.04 mins
BSTAR
0.000089767
Loading maneuver chart data...
Computing Atmospheric mass density...
Loading historical data...
Loading historical data...
Loading historical data...
Loading historical data...
Loading historical data...
Loading historical data...
Loading historical data...

Documentation

Showing up to 5 results
|